FW2897 Weather Reports


Display with metric or nautical units.
time (UTC)temp
F
wind
direction
speed
MPH
gust
MPH
rain 1hr
in
rain 24hr
in
rain mn
in
humidity
%
barometer
mb
20260502163152 58 314 2.0 9.0 0.00 0.00 0.00 46 1013.1
20260502162624 58 286 2.0 9.0 0.00 0.00 0.00 46 1013.1
20260502162055 59 302 3.0 12.0 0.00 0.00 0.00 45 1013.2
20260502161531 58 254 3.0 12.0 0.00 0.00 0.00 44 1013.3
20260502161028 58 221 2.0 8.0 0.00 0.00 0.00 45 1013.4
20260502160535 58 98 2.0 8.0 0.00 0.00 0.00 44 1013.5
20260502152327 56 172 1.0 8.0 0.00 0.00 0.00 55 1013.3
20260502151759 55 224 1.0 8.0 0.00 0.00 0.00 56 1013.3
20260502151256 55 353 1.0 5.0 0.00 0.00 0.00 57 1013.4
20260502150757 55 211 1.0 5.0 0.00 0.00 0.00 60 1013.4
20260502150229 55 239 1.0 5.0 0.00 0.00 0.00 58 1013.3
20260502130628 52 299 1.0 7.0 0.00 0.00 0.00 71 1013.5
20260502130127 52 327 2.0 11.0 0.00 0.00 0.00 71 1013.5
20260502123526 51 334 3.0 11.0 0.00 0.00 0.00 71 1013.3
20260502123242 52 299 3.0 10.0 0.00 0.00 0.00 70 1013.3
20260502122713 52 307 2.0 10.0 0.00 0.00 0.00 70 1013.4
20260502121949 52 309 3.0 11.0 0.00 0.00 0.00 70 1013.3
20260502121420 52 289 2.0 8.0 0.00 0.00 0.00 70 1013.3
20260502120858 52 278 1.0 5.0 0.00 0.00 0.00 71 1013.2
20260502120625 52 274 1.0 5.0 0.00 0.00 0.00 72 1013.1
20260502115856 51 259 2.0 5.0 0.00 0.00 0.00 72 1013.1
20260502115353 51 288 1.0 4.0 0.00 0.00 0.00 72 1013.1
20260502114855 51 240 2.0 7.0 0.00 0.00 0.00 72 1013.0
20260502114554 51 238 1.0 7.0 0.00 0.00 0.00 73 1013.2
20260502114049 51 320 1.0 6.0 0.00 0.00 0.00 73 1013.1
20260502113326 51 308 1.0 6.0 0.00 0.00 0.00 74 1013.0
20260502112758 51 293 2.0 8.0 0.00 0.00 0.00 74 1013.1
20260502112301 50 267 3.0 10.0 0.00 0.00 0.00 74 1013.0
20260502111737 50 307 3.0 10.0 0.00 0.00 0.00 74 1013.1
20260502111235 51 238 2.0 6.0 0.00 0.00 0.00 74 1013.0
20260502110936 51 302 2.0 9.0 0.00 0.00 0.00 74 1013.1
20260502110212 50 293 1.0 9.0 0.00 0.00 0.00 74 1013.0
20260502105713 50 326 1.0 5.0 0.00 0.00 0.00 74 1012.9
20260502105210 50 293 2.0 6.0 0.00 0.00 0.00 74 1012.9
20260502104710 50 305 2.0 6.0 0.00 0.00 0.00 74 1012.8
20260502104154 50 325 2.0 8.0 0.00 0.00 0.00 74 1012.8
20260502103920 50 315 2.0 7.0 0.00 0.00 0.00 74 1012.7
20260502103128 50 292 2.0 7.0 0.00 0.00 0.00 74 1012.6
20260502102625 50 341 2.0 8.0 0.00 0.00 0.00 74 1012.4
20260502102057 50 314 2.0 8.0 0.00 0.00 0.00 76 1012.4
20260502101537 50 334 1.0 4.0 0.00 0.00 0.00 78 1012.3
20260502101034 50 299 0.0 2.0 0.00 0.00 0.00 80 1012.4
20260502100536 49 307 0.0 1.0 0.00 0.00 0.00 81 1012.3
20260502091348 51 274 0.0 0.0 0.00 0.00 0.00 77 1012.3
20260502090848 51 274 0.0 0.0 0.00 0.00 0.00 77 1012.2
20260502090345 51 274 0.0 0.0 0.00 0.00 0.00 77 1012.4
20260502071337 54 274 0.0 1.0 0.00 0.00 0.00 68 1012.1
20260502070836 54 274 0.0 1.0 0.00 0.00 0.00 68 1012.0
20260502070311 54 263 0.0 1.0 0.00 0.00 0.00 68 1012.1
20260502065744 54 288 0.0 2.0 0.00 0.00 0.00 68 1012.2
20260502065239 54 260 0.0 4.0 0.00 0.00 0.00 68 1012.2
20260502064737 54 271 0.0 4.0 0.00 0.00 0.00 67 1012.3
20260502064432 54 268 0.0 1.0 0.00 0.00 0.00 67 1012.3
20260502063707 54 229 0.0 1.0 0.00 0.00 0.00 67 1012.3
20260502063140 54 229 0.0 1.0 0.00 0.00 0.00 67 1012.3
20260502062637 54 228 0.0 4.0 0.00 0.00 0.00 67 1012.3
20260502062112 54 165 0.0 4.0 0.00 0.00 0.00 67 1012.4
20260502061803 54 189 0.0 5.0 0.00 0.00 0.00 66 1012.4
20260502061303 54 214 0.0 5.0 0.00 0.00 0.00 66 1012.2
20260502060513 54 240 1.0 5.0 0.00 0.00 0.00 66 1012.1
20260502060013 54 210 1.0 5.0 0.00 0.00 0.00 67 1012.2
20260502055707 54 178 1.0 4.0 0.00 0.00 0.00 67 1012.4
20260502054942 54 216 1.0 4.0 0.00 0.00 0.00 67 1012.5
20260502054415 54 229 1.0 6.0 0.00 0.00 0.00 68 1012.5
20260502053911 53 232 1.0 5.0 0.00 0.00 0.00 69 1012.5
20260502053405 53 218 0.0 2.0 0.00 0.00 0.00 70 1012.6
20260502053351 53 316 0.0 1.0 0.00 0.00 0.00 71 1012.8
20260502052333 54 315 0.0 1.0 0.00 0.00 0.00 71 1012.8
20260502051832 54 294 0.0 1.0 0.00 0.00 0.00 69 1012.7
20260502051303 54 224 0.0 2.0 0.00 0.00 0.00 68 1012.7
20260502050757 54 224 0.0 2.0 0.00 0.00 0.00 68 1012.7
20260502050257 54 164 0.0 1.0 0.00 0.00 0.00 69 1012.4
20260502045729 53 226 0.0 2.0 0.00 0.00 0.00 71 1012.5
20260502045159 53 226 0.0 2.0 0.00 0.00 0.00 72 1012.7
20260502044921 53 191 0.0 1.0 0.00 0.00 0.00 75 1012.7
20260502044152 53 150 0.0 0.0 0.00 0.00 0.00 75 1012.5
20260502043623 53 233 0.0 0.0 0.00 0.00 0.00 75 1012.7
20260502043122 53 233 0.0 0.0 0.00 0.00 0.00 75 1012.7
20260502042819 53 233 0.0 0.0 0.00 0.00 0.00 75 1012.7
20260502042028 53 224 0.0 0.0 0.00 0.00 0.00 75 1012.6
20260502041802 53 224 0.0 0.0 0.00 0.00 0.00 75 1012.6
20260502041225 53 224 0.0 0.0 0.00 0.00 0.00 75 1012.6
20260502040655 53 224 0.0 0.0 0.00 0.00 0.00 75 1012.3
20260502035925 53 224 0.0 0.0 0.00 0.00 0.00 75 1012.3
20260502035402 53 224 0.0 0.0 0.00 0.00 0.00 75 1012.4
20260502034859 53 224 0.0 0.0 0.00 0.00 0.00 75 1012.4
20260502034336 53 224 0.0 0.0 0.00 0.00 0.00 75 1012.3
20260502033811 53 224 0.0 0.0 0.00 0.00 0.00 74 1012.2
20260502033754 53 224 0.0 1.0 0.00 0.00 0.00 74 1012.2
20260502032808 53 223 0.0 1.0 0.00 0.00 0.00 74 1012.2
20260502032306 53 246 0.0 1.0 0.00 0.00 0.00 74 1012.1
20260502031739 53 246 0.0 1.0 0.00 0.00 0.00 73 1012.1
20260502031212 53 246 0.0 1.0 0.00 0.00 0.00 73 1012.3
20260502030711 53 246 0.0 2.0 0.00 0.00 0.00 73 1012.2
20260502030139 53 184 0.0 2.0 0.00 0.00 0.00 73 1012.1
20260502025641 53 224 0.0 2.0 0.00 0.00 0.00 73 1012.1
20260502025140 53 84 0.0 2.0 0.00 0.00 0.00 73 1012.1
20260502024638 53 84 0.0 2.0 0.00 0.00 0.00 73 1012.0
20260502024136 54 112 0.0 1.0 0.00 0.00 0.00 73 1012.3
20260502023622 54 113 0.0 3.0 0.00 0.00 0.00 72 1012.4
20260502023050 54 139 0.0 3.0 0.00 0.00 0.00 72 1012.5
20260502022554 54 90 0.0 1.0 0.00 0.00 0.00 72 1012.6
20260502022049 54 89 0.0 3.0 0.00 0.00 0.00 71 1012.7
20260502021554 54 219 0.0 3.0 0.00 0.00 0.00 71 1012.6
20260502021259 54 202 1.0 3.0 0.00 0.00 0.00 71 1012.8
20260502021248 54 198 0.0 3.0 0.00 0.00 0.00 71 1012.7
20260502020039 54 205 1.0 3.0 0.00 0.00 0.00 71 1012.6
20260502015540 54 216 1.0 3.0 0.00 0.00 0.00 70 1012.7
20260502015024 54 196 1.0 3.0 0.00 0.00 0.00 70 1012.7
20260502014455 54 201 0.0 2.0 0.00 0.00 0.00 69 1012.4
20260502013953 54 101 0.0 2.0 0.00 0.00 0.00 69 1012.5
20260502013916 54 91 1.0 6.0 0.00 0.00 0.00 68 1012.1
20260502012925 54 90 2.0 6.0 0.00 0.00 0.00 68 1012.3
20260502012646 54 236 1.0 5.0 0.00 0.00 0.00 68 1012.3
20260502011917 55 217 1.0 4.0 0.00 0.00 0.00 67 1012.4
20260502011353 55 236 0.0 3.0 0.00 0.00 0.00 66 1012.4
20260502010850 55 198 1.0 4.0 0.00 0.00 0.00 65 1012.3
20260502010340 55 197 1.0 4.0 0.00 0.00 0.00 65 1012.3
20260502005815 55 167 0.0 3.0 0.00 0.00 0.00 64 1012.3
20260502005309 56 154 1.0 3.0 0.00 0.00 0.00 64 1012.2
20260502004807 56 236 0.0 3.0 0.00 0.00 0.00 63 1012.1
20260502004310 56 218 0.0 2.0 0.00 0.00 0.00 62 1012.1
20260502004000 56 97 1.0 4.0 0.00 0.00 0.00 61 1012.1
20260502003201 57 241 1.0 4.0 0.00 0.00 0.00 60 1012.0
20260502002900 57 194 1.0 4.0 0.00 0.00 0.00 60 1011.8
20260502002110 57 133 1.0 7.0 0.00 0.00 0.00 60 1011.7
20260502001545 58 219 1.0 7.0 0.00 0.00 0.00 59 1011.6
20260502001246 58 162 2.0 6.0 0.00 0.00 0.00 59 1011.6
20260502000948 58 248 1.0 6.0 0.00 0.00 0.00 58 1011.7
20260502000123 59 193 2.0 6.0 0.00 0.00 0.00 58 1011.4
20260502000112 58 219 1.0 6.0 0.00 0.00 0.00 59 1011.6
20260501234833 59 120 2.0 6.0 0.00 0.00 0.00 57 1011.4
20260501234555 60 207 2.0 6.0 0.00 0.00 0.00 55 1011.7
20260501233804 60 217 2.0 6.0 0.00 0.00 0.00 54 1011.6
20260501233235 60 218 2.0 5.0 0.00 0.00 0.00 53 1011.6
20260501233227 61 113 2.0 5.0 0.00 0.00 0.00 52 1011.4
20260501232208 61 234 2.0 5.0 0.00 0.00 0.00 49 1011.5
20260501231639 62 236 2.0 9.0 0.00 0.00 0.00 48 1011.4
20260501231139 62 229 3.0 9.0 0.00 0.00 0.00 47 1011.3
20260501230609 63 184 2.0 8.0 0.00 0.00 0.00 47 1011.2
20260501230108 63 239 2.0 8.0 0.00 0.00 0.00 46 1011.3
20260501225541 64 157 1.0 8.0 0.00 0.00 0.00 44 1011.2
20260501225038 64 243 1.0 2.0 0.00 0.00 0.00 40 1011.2
20260501224510 64 298 1.0 5.0 0.00 0.00 0.00 40 1011.2
20260501224005 64 311 1.0 4.0 0.00 0.00 0.00 39 1011.2
20260501223503 64 285 1.0 4.0 0.00 0.00 0.00 40 1011.2
20260501223002 64 249 1.0 5.0 0.00 0.00 0.00 40 1011.2
20260501222448 65 243 1.0 5.0 0.00 0.00 0.00 39 1011.2
20260501221945 65 263 1.0 5.0 0.00 0.00 0.00 38 1011.4
20260501221444 65 224 2.0 7.0 0.00 0.00 0.00 39 1011.4
20260501220925 65 102 2.0 7.0 0.00 0.00 0.00 38 1011.3
20260501220423 64 175 2.0 9.0 0.00 0.00 0.00 41 1011.3
20260501215921 64 307 3.0 9.0 0.00 0.00 0.00 43 1011.3
20260501215424 64 236 3.0 9.0 0.00 0.00 0.00 44 1011.3
20260501214920 65 166 2.0 9.0 0.00 0.00 0.00 43 1011.3
20260501214419 65 223 2.0 7.0 0.00 0.00 0.00 41 1011.3
20260501213855 65 233 2.0 7.0 0.00 0.00 0.00 41 1011.3
20260501213328 65 216 2.0 7.0 0.00 0.00 0.00 42 1011.4
20260501212827 65 260 2.0 7.0 0.00 0.00 0.00 41 1011.3
20260501212257 65 236 2.0 7.0 0.00 0.00 0.00 39 1011.3
20260501211756 65 256 2.0 8.0 0.00 0.00 0.00 37 1011.3
20260501211229 65 224 2.0 8.0 0.00 0.00 0.00 38 1011.4
20260501210722 65 166 2.0 8.0 0.00 0.00 0.00 39 1011.3
20260501210707 64 192 2.0 8.0 0.00 0.00 0.00 39 1011.4
20260501205717 64 209 3.0 8.0 0.00 0.00 0.00 40 1011.6
20260501205437 64 221 3.0 12.0 0.00 0.00 0.00 43 1011.5
20260501204647 64 220 4.0 13.0 0.00 0.00 0.00 45 1011.5
20260501204144 64 204 4.0 13.0 0.00 0.00 0.00 44 1011.5
20260501203845 64 230 4.0 13.0 0.00 0.00 0.00 45 1011.5
20260501203053 64 233 3.0 13.0 0.00 0.00 0.00 44 1011.5
20260501202812 64 58 4.0 13.0 0.00 0.00 0.00 45 1011.5
20260501202311 63 210 4.0 13.0 0.00 0.00 0.00 45 1011.7
20260501201518 64 150 4.0 10.0 0.00 0.00 0.00 46 1011.6
20260501201249 63 238 5.0 12.0 0.00 0.00 0.00 47 1011.7
20260501200449 63 101 6.0 14.0 0.00 0.00 0.00 45 1011.8
20260501195949 63 257 6.0 14.0 0.00 0.00 0.00 43 1011.8
20260501195710 63 54 5.0 13.0 0.00 0.00 0.00 45 1011.9
20260501194923 63 231 4.0 13.0 0.00 0.00 0.00 43 1011.9
20260501194359 63 192 5.0 13.0 0.00 0.00 0.00 43 1011.9
20260501193901 63 188 4.0 13.0 0.00 0.00 0.00 43 1012.0
20260501193558 63 224 4.0 11.0 0.00 0.00 0.00 44 1012.0
20260501192838 63 174 4.0 11.0 0.00 0.00 0.00 43 1012.1
20260501192538 63 212 4.0 10.0 0.00 0.00 0.00 42 1012.0
20260501191806 63 226 4.0 11.0 0.00 0.00 0.00 41 1012.1
20260501191303 63 184 4.0 10.0 0.00 0.00 0.00 41 1012.1
20260501190758 63 233 4.0 8.0 0.00 0.00 0.00 42 1012.2
20260501190240 63 226 4.0 10.0 0.00 0.00 0.00 41 1012.3
20260501185737 62 141 4.0 8.0 0.00 0.00 0.00 42 1012.4
20260501185216 63 127 4.0 8.0 0.00 0.00 0.00 42 1012.4
20260501184644 63 136 3.0 9.0 0.00 0.00 0.00 40 1012.5
20260501184120 63 226 3.0 9.0 0.00 0.00 0.00 39 1012.6
20260501183614 63 253 3.0 8.0 0.00 0.00 0.00 42 1012.6
20260501183113 63 125 3.0 8.0 0.00 0.00 0.00 41 1012.7
20260501182614 63 94 4.0 11.0 0.00 0.00 0.00 42 1012.7
20260501182115 62 123 4.0 11.0 0.00 0.00 0.00 39 1012.8
20260501181613 63 198 4.0 9.0 0.00 0.00 0.00 41 1012.7
20260501181112 63 60 3.0 9.0 0.00 0.00 0.00 40 1012.6
20260501180611 63 181 2.0 8.0 0.00 0.00 0.00 41 1012.6
20260501180107 63 231 2.0 8.0 0.00 0.00 0.00 42 1012.6
20260501175820 63 171 2.0 6.0 0.00 0.00 0.00 41 1012.6
20260501175056 63 85 2.0 6.0 0.00 0.00 0.00 41 1012.6
20260501174556 64 193 2.0 6.0 0.00 0.00 0.00 41 1012.7
20260501174059 64 257 3.0 6.0 0.00 0.00 0.00 41 1012.8
20260501173534 63 168 4.0 10.0 0.00 0.00 0.00 45 1012.6
20260501173014 62 94 3.0 10.0 0.00 0.00 0.00 42 1012.8
20260501172450 63 144 2.0 6.0 0.00 0.00 0.00 41 1012.8
20260501171945 64 238 2.0 8.0 0.00 0.00 0.00 41 1012.9
20260501171422 64 248 2.0 8.0 0.00 0.00 0.00 41 1012.9
20260501170922 63 176 1.0 5.0 0.00 0.00 0.00 44 1012.8
20260501170400 63 154 1.0 5.0 0.00 0.00 0.00 44 1012.9
20260501165834 62 84 2.0 6.0 0.00 0.00 0.00 43 1013.0
20260501165324 63 174 2.0 6.0 0.00 0.00 0.00 42 1013.2
20260501164824 62 225 2.0 5.0 0.00 0.00 0.00 43 1013.3
20260501164256 62 214 2.0 5.0 0.00 0.00 0.00 43 1013.3
20260501163750 61 79 2.0 5.0 0.00 0.00 0.00 44 1013.3
20260501163514 62 195 2.0 6.0 0.00 0.00 0.00 43 1013.4